Regional Weather Roundup
Issued by NWS Charleston, WV

Home | Current Version | Previous Version | Graphics & Text | Print | Product List | Glossary On
Versions: 1 2 3 4 5 6 7 8 9 10 11 12 13 14 15 16 17 18 19 20 21 22 23 24 25 26 27
000
ASUS41 KRLX 150810
RWRRLX
West Virginia Regional Weather Roundup
National Weather Service Charleston WV
300 AM EST MON JAN 15 2018

Note: "fair" indicates few or no clouds below 12,000 feet with no
significant weather and/or obstructions to visibility.

WVZ003-150900-
Northern Panhandle of West Virginia

CITY           SKY/WX    TMP DP  RH WIND       PRES   REMARKS
WHEELING         N/A      7  -1  70 E8        30.40F WCI  -6
$$

WVZ009-150900-
Northwest West Virginia

CITY           SKY/WX    TMP DP  RH WIND       PRES   REMARKS
PARKERSBURG      N/A      6   2  83 CALM      30.46R
$$

WVZ006-150900-
Western West Virginia

CITY           SKY/WX    TMP DP  RH WIND       PRES   REMARKS
HUNTINGTON       N/A     11   8  88 E3        30.41F
$$

WVZ015-150900-
West Central West Virginia

CITY           SKY/WX    TMP DP  RH WIND       PRES   REMARKS
CHARLESTON       N/A     11   8  88 CALM      30.40S
$$

WVZ022-031-150900-
North Central West Virginia

CITY           SKY/WX    TMP DP  RH WIND       PRES   REMARKS
CLARKSBURG       N/A     10   4  76 CALM      30.40F
MORGANTOWN       N/A     16   1  51 E8        30.42S WCI   5
$$

WVZ025-035-042-045-150900-
Southern West Virginia

CITY           SKY/WX    TMP DP  RH WIND       PRES   REMARKS
BECKLEY          N/A     15   4  61 SE13      30.32S WCI   1
LOGAN            N/A     19   9  63 CALM      30.35S
BLUEFIELD        N/A     14   4  64 E8        30.32R WCI   3
LEWISBURG        N/A     11   5  74 N3        30.40S
$$

WVZ047-150900-
Northern Mountains of West Virginia

CITY           SKY/WX    TMP DP  RH WIND       PRES   REMARKS
ELKINS           N/A      7   3  84 CALM      30.38S
$$

WVZ052-150900-
Eastern Panhandle of West Virginia

CITY           SKY/WX    TMP DP  RH WIND       PRES   REMARKS
MARTINSBURG      N/A     13   6  74 CALM      30.58F
PETERSBURG       N/A      8   6  89 CALM      30.54S
$$




USA.gov is the U.S. government's official web portal to all federal, state and local government web resources and services.